Location: Tauranga
(37.6860°S, 176.1670°E)
Time: 12:16:42
(UTC+13:00)

Cosmos 1741 Rocket - Pass Details

Date: 24 January 2019
Orbit: 762 x 782 km, 74.0° (Epoch: 15 February)

Event Time Altitude Azimuth Distance (km) Brightness Sun altitude
Rises 21:14:11 0° 338° (NNW) 3,253 7.1 -7.7°
Reaches altitude 10° 21:16:33 10° 336° (NNW) 2,335 6.4 -8.1°
Maximum altitude 21:21:52 74° 251° (WSW) 826 4.4 -9.0°
Drops below altitude 10° 21:27:16 10° 166° (SSE) 2,370 6.8 -9.9°
Sets 21:29:41 0° 163° (SSE) 3,305 7.5 -10.3°
